Location: Arbon
(43.0005°N, 0.7472°E)
Time: 00:52:31
(UTC+00:00)

S-56A Canister/Altair - Pass Details

Date: 13 December 2020
Orbit: 633 x 2499 km, 38.9° (Epoch: 19 January)

Event Time Altitude Azimuth Distance (km) Brightness Sun altitude
Rises 17:40:31 0° 268° (W) 6,178 13.7 -13.7°
Reaches altitude 10° 17:44:39 10° 267° (W) 5,137 13.0 -14.4°
Maximum altitude 17:59:20 73° 187° (S) 2,204 9.8 -17.0°
Enters shadow 18:08:29 17° 107° (ESE) 3,459 10.3 -18.6°
